Presure
138 148 158 145 145 135 148 140 138 129 142 137 187 178 156 149 165 185 158 167 179 173 148 210 202 146 233 178 180 178 167 214 225 203 218 221 244 246 240 234 242 242 258 277 272 218 288
159 147 136 149 137 147 156 140 142 131 123 145 149 128 141 121 141 134 145 111 170 184 178 121 163 189 140 159 203 145 213 148 160 232 238 229 186 154 239 241 238 238 242 257 311 315 301
135 137 139 142 137 134 133 138 149 151 101 169 149 133 129 113 139 176 151 132 171 173 142 104 187 157 175 207 217 168 127 154 188 234 227 208 244 226 251 242 233 242 232 241 265 355 339
136 138 135 135 134 130 131 131 128 123 115 126 135 154 170 119 123 139 133 107 131 184 168 191 194 182 192 180 203 168 138 147 203 190 212 226 244 173 236 240 241 237 249 221 242 261 260
152 145 129 131 141 121 135 128 134 130 128 132 124 150 122 128 144 148 125 122 129 148 181 185 188 178 195 161 186 182 162 168 205 179 211 211 229 228 236 240 223 238 240 245 234 238 251
117 127 127 139 143 123 128 133 139 126 129 114 129 144 115 132 133 146 140 134 144 113 138 184 175 192 135 185 181 197 187 166 181 186 203 189 207 212 217 223 243 160 241 240 203 235 238
113 136 128 146 143 128 123 111 138 131 111 118 139 115 133 163 119 129 111 135 121 152 121 153 180 180 179 176 173 179 193 175 190 194 201 191 171 207 231 219 205 247 240 236 243 239 234
111 128 133 111 133 124 138 149 119 136 119 121 125 125 110 150 134 134 117 117 120 168 166 183 125 140 182 176 182 181 181 179 191 179 198 193 193 186 207 209 220 251 248 242 239 232 214
116 114 103 101 116 115 129 116 134 142 170 148 132 104 141 124 127 129 127 120 118 147 176 181 133 166 173 181 167 183 180 183 181 187 180 191 195 189 172 224 229 222 213 246 189 238 234
126 148 117 122 108 118 104 119 133 146 106 152 107 122 119 124 132 135 155 121 122 160 156 171 137 148 177 177 171 186 179 182 188 185 180 192 187 191 203 219 228 222 217 208 245 241 239
105 142 141 111 104 127 134 108 120 131 110 100 131 102 128 141 125 131 126 110 113 121 164 125 173 183 185 179 180 168 172 183 182 179 187 184 184 196 185 197 211 222 222 214 236 243 239
118 131 122 122 102 102 138 138 135 110 147 125 100 148 117 114 149 116 139 166 146 158 150 165 168 179 175 155 172 165 171 169 179 173 190 190 185 190 187 195 199 169 226 226 205 246 244
137 122 138 146 111 116 123 134 121 110 115 119 122 125 122 123 146 111 135 148 122 155 139 168 164 162 164 164 173 172 170 187 181 175 177 188 185 182 190 197 204 201 227 221 216 202 247
155 96 100 100 104 144 134 115 134 127 131 126 150 140 148 135 164 151 156 115 114 155 154 166 175 174 162 168 169 166 178 174 178 169 178 175 189 186 195 197 194 193 205 226 220 203 203
116 98 107 105 122 112 110 140 112 127 134 136 137 115 129 132 129 115 124 152 117 150 150 166 153 170 123 157 171 172 165 178 184 186 184 179 177 174 188 187 192 190 206 228 214 253 201
102 118 121 104 151 150 159 144 142 135 140 122 152 161 118 118 151 128 99 157 162 155 164 166 159 159 168 174 154 155 175 166 170 180 184 168 180 192 189 191 189 197 216 235 215 252 223
102 121 114 125 116 132 146 151 137 148 140 129 142 117 130 123 116 159 145 101 159 156 156 149 159 155 163 155 168 168 171 171 174 177 171 177 189 185 196 185 197 202 227 228 214 221 215
108 137 134 143 141 127 149 144 142 116 131 116 126 165 153 141 152 151 154 138 103 160 162 166 163 168 170 172 158 175 156 170 156 180 177 179 182 180 200 194 200 208 233 234 274 266 203
135 128 151 162 120 153 134 136 127 126 137 109 118 117 152 106 117 151 138 160 147 158 146 127 161 164 152 168 164 169 172 172 178 174 178 182 185 191 193 196 198 217 253 285 275 264 247
121 125 128 133 151 156 150 134 140 107 152 164 134 110 128 138 132 142 159 140 164 150 143 153 169 165 165 159 163 173 166 186 173 186 183 188 190 185 197 199 233 233 225 294 281 265 250
160 130 128 130 125 144 121 140 150 124 151 129 125 138 141 140 142 133 150 155 145 145 149 135 162 149 162 156 168 178 171 167 178 173 179 180 191 192 193 232 227 233 249 293 278 260 254
142 127 148 142 144 150 147 147 115 122 139 126 121 133 138 132 148 140 150 141 140 155 150 149 165 153 159 170 166 162 176 177 178 180 182 184 192 210 238 206 239 223 238 276 284 271 256
136 123 112 145 120 113 120 155 142 134 131 117 122 110 107 152 126 161 138 150 155 160 153 165 152 169 164 170 163 169 173 181 173 177 177 186 195 209 209 240 220 234 298 284 257 287 264
129 118 127 139 130 109 128 135 132 134 135 138 130 121 133 154 133 141 134 120 152 156 130 159 160 161 161 172 166 169 180 173 184 182 190 200 216 204 223 204 226 245 222 289 273 273 276
131 131 129 121 140 128 126 117 136 149 123 121 137 138 131 162 132 143 164 116 152 138 149 159 172 169 175 165 157 177 178 170 184 189 208 222 205 240 216 202 249 220 299 282 270 263 280
141 141 141 142 119 120 134 138 140 133 156 109 144 151 144 130 152 109 144 163 161 157 173 181 155 170 165 171 179 175 190 183 196 211 232 196 236 222 234 249 228 234 299 281 267 257 267
120 128 124 132 131 125 145 146 128 145 138 169 150 119 136 116 122 96 97 153 179 184 175 181 174 166 178 178 172 185 181 198 194 219 198 203 213 199 253 242 238 218 280 289 275 263 253
133 132 130 156 147 119 138 134 99 143 159 142 145 116 154 151 170 154 157 167 169 176 175 177 175 166 172 174 178 192 197 206 186 191 203 247 222 215 228 247 232 233 280 301 273 273 250
124 123 127 119 147 131 118 107 128 101 148 146 130 161 102 171 132 163 175 164 163 172 186 181 173 179 185 169 201 211 221 212 210 209 213 232 199 228 234 208 239 267 264 255 271 265 243
Wind_Speed
22 33 30 35 36 24 40 34 28 16 41 33 38 36 35 41 43 46 37 43 40 45 30 50 56 22 53 46 41 34 45 43 41 42 41 46 46 44 40 34 39 40 49 48 30 31 38
28 32 25 35 30 35 33 36 37 23 23 28 36 30 34 25 40 30 42 22 43 44 44 24 39 55 29 45 60 32 50 23 31 52 58 49 41 25 48 47 43 40 47 54 31 29 35
23 25 28 32 33 33 34 34 30 30 19 29 30 35 30 19 39 41 37 43 38 38 35 18 49 43 43 68 70 50 24 37 45 63 63 47 60 54 56 53 49 50 41 48 60 28 21
23 25 27 28 28 29 31 32 33 30 23 31 31 29 33 37 40 37 40 25 41 46 38 59 62 48 62 45 68 44 38 27 61 57 65 68 61 39 60 61 59 55 55 40 48 53 51
17 18 24 24 20 27 22 29 25 27 29 27 35 27 35 32 36 35 39 43 43 43 52 57 61 46 68 50 55 47 42 52 74 55 73 72 78 67 62 62 55 63 61 57 46 47 56
17 19 19 15 14 27 25 25 17 22 25 31 32 24 35 30 30 34 43 39 37 40 44 58 47 68 43 57 55 73 60 58 52 66 76 66 73 68 73 62 62 35 62 62 43 51 53
18 11 14 11 11 18 25 26 17 28 29 31 19 34 25 33 40 35 36 37 45 50 48 37 58 58 58 52 51 61 75 53 74 78 85 71 58 85 84 78 68 57 60 61 63 57 54
14 11 9 23 12 15 21 14 27 25 30 27 26 28 32 32 28 36 38 36 30 51 56 62 49 45 66 57 69 70 68 66 80 66 85 81 79 66 90 73 81 58 56 58 60 56 51
14 14 11 12 22 23 16 13 21 15 29 21 18 26 25 25 31 38 37 39 44 35 60 64 44 53 57 70 49 71 71 77 71 81 72 85 88 80 64 95 82 78 71 58 46 58 57
12 7 9 17 13 17 15 25 17 21 22 25 18 30 32 34 32 36 37 43 45 48 57 58 52 56 69 68 59 79 74 78 83 80 77 88 82 89 100 91 83 79 77 69 57 55 53
2 10 14 13 9 23 20 9 24 25 20 13 27 17 22 25 33 33 35 35 41 51 53 51 65 70 73 73 74 60 69 82 81 78 88 81 80 94 78 94 85 83 80 76 60 54 53
14 20 18 18 3 1 17 20 19 14 28 30 12 31 27 22 34 35 34 53 50 55 47 59 64 72 70 45 69 57 67 68 82 75 88 89 87 92 85 96 97 55 79 76 70 53 50
27 21 28 23 12 20 20 24 26 25 29 34 38 38 36 39 42 32 36 49 43 49 49 65 62 60 62 60 73 75 72 87 85 79 80 89 88 84 93 97 102 97 83 77 77 66 50
25 5 4 6 9 25 30 25 33 32 31 36 33 35 37 39 43 41 49 37 38 54 51 65 73 75 62 74 67 69 83 80 85 70 83 74 95 92 99 98 92 90 105 77 77 68 65
20 7 13 11 32 24 21 32 25 39 32 34 34 31 38 40 39 32 40 52 42 53 52 67 56 74 47 56 80 80 69 88 90 92 92 86 77 70 93 85 93 93 107 80 82 49 65
12 19 21 15 34 31 37 33 37 38 38 36 41 48 33 34 46 42 26 55 60 59 67 68 66 70 78 79 56 70 85 71 83 90 92 72 95 102 97 91 94 110 100 74 83 47 57
16 28 28 40 36 43 40 40 40 41 45 41 43 29 40 39 30 56 48 32 62 61 61 57 69 67 75 63 80 77 81 73 81 88 80 89 103 96 101 87 107 107 90 81 82 75 63
26 42 45 37 40 41 40 40 41 31 42 32 43 58 55 51 56 57 60 52 35 67 70 77 76 81 84 86 69 90 62 81 55 96 96 97 86 96 111 101 111 114 91 83 45 38 63
47 44 46 48 42 44 43 43 39 44 47 26 38 34 56 24 41 59 55 70 60 71 55 54 77 80 63 87 82 90 91 91 96 85 98 103 101 106 104 106 112 113 83 49 43 38 39
41 47 44 45 47 50 47 47 48 26 55 62 51 35 43 56 56 59 73 59 77 68 56 69 85 84 84 78 83 95 85 104 95 107 105 106 109 100 108 107 106 98 95 46 40 36 35
57 50 45 46 44 46 41 51 54 40 56 49 50 57 59 59 60 58 72 73 65 65 70 62 84 61 85 76 98 102 96 90 103 94 101 97 109 110 111 104 114 99 85 40 35 37 33
55 50 55 51 50 57 58 53 33 47 55 51 49 58 62 58 68 63 72 66 64 79 73 75 91 75 84 98 91 85 104 106 107 110 110 107 110 119 95 118 101 113 94 48 41 39 38
56 49 41 58 51 34 41 63 59 56 50 39 50 34 46 74 57 79 66 75 80 85 80 91 77 99 93 101 90 100 102 111 98 105 102 111 115 119 114 100 113 101 46 48 50 47 41
58 48 55 60 57 30 60 61 60 62 61 64 58 53 64 79 65 69 69 60 80 86 63 89 87 92 95 106 98 101 111 106 116 114 117 123 125 119 106 113 110 95 94 46 48 47 45
65 64 62 53 65 62 55 38 67 73 52 49 65 65 63 85 68 73 90 61 84 67 79 92 100 104 107 99 81 109 109 103 116 121 127 127 125 106 123 113 92 105 49 49 49 45 43
74 74 73 71 50 54 69 69 71 59 78 36 76 78 72 68 87 54 80 95 94 90 107 110 86 107 103 109 112 110 119 116 123 127 121 122 114 123 115 100 107 98 48 49 51 50 40
55 64 59 70 67 58 79 78 58 70 68 93 84 54 68 64 70 49 50 89 110 112 105 114 111 109 118 118 107 123 119 129 120 127 123 124 125 119 100 105 100 103 72 52 50 52 50
72 72 71 87 81 59 68 71 46 78 89 76 80 59 85 84 101 95 97 101 106 114 112 115 115 110 116 118 117 129 131 133 120 122 127 112 118 124 118 107 106 102 71 56 58 53 53
61 58 69 50 86 65 58 43 60 48 86 79 65 99 52 106 76 98 112 105 103 114 124 118 120 127 129 107 137 134 132 134 132 132 133 121 126 126 116 117 109 94 86 77 67 58 57
Wind_Direction
94 77 75 70 68 83 59 64 65 66 50 53 56 50 48 42 43 46 44 36 35 37 28 37 40 18 35 27 19 12 15 26 20 14 5 13 15 18 14 6 11 8 10 9 339 295 280
67 76 88 60 72 57 50 54 49 59 53 52 39 49 44 39 33 39 30 24 31 41 33 12 30 31 9 25 30 4 22 8 11 23 23 18 4 345 12 12 9 9 7 10 343 300 280
87 76 68 62 60 61 58 53 47 44 64 43 38 42 41 52 25 37 31 23 30 26 31 3 35 25 22 30 31 22 343 358 16 20 16 13 17 13 14 11 7 7 4 6 14 332 328
70 67 65 58 57 58 55 53 53 53 53 43 37 35 34 35 28 24 18 23 20 32 21 32 29 27 26 24 25 14 9 7 22 11 21 17 15 346 10 11 7 5 5 358 8 17 24
71 72 60 57 59 54 53 51 43 42 38 35 33 31 32 29 21 26 17 16 11 21 28 27 26 25 20 10 20 18 3 12 19 13 19 17 14 13 8 9 1 1 3 6 3 4 18
73 57 53 61 55 48 53 42 53 48 33 44 27 30 30 10 10 24 13 9 12 17 11 23 26 18 5 20 18 17 15 10 10 13 16 11 15 9 13 5 5 339 359 0 355 5 10
72 58 38 55 58 45 37 56 41 25 41 24 19 24 8 18 8 0 21 4 7 15 6 4 16 17 16 16 14 17 13 9 11 13 12 13 0 11 8 8 6 358 360 359 358 3 4
69 22 35 56 31 37 33 22 23 10 16 8 1 6 25 7 3 9 4 6 9 10 9 11 0 2 11 14 12 10 11 8 10 5 10 10 10 8 6 5 3 2 357 357 357 357 353
33 50 101 91 35 40 12 25 24 357 1 1 348 38 7 15 355 360 350 360 3 359 7 6 5 8 7 8 9 3 8 7 8 8 7 8 6 5 358 2 0 360 3 356 340 355 356
332 343 20 2 60 12 61 9 334 1 40 355 20 2 358 353 352 355 360 355 357 358 360 4 350 1 5 6 5 3 6 5 3 4 6 4 3 4 3 3 357 356 356 1 352 352 351
109 279 334 33 68 331 313 28 350 327 18 32 340 13 348 341 346 339 344 2 0 352 359 352 360 358 358 360 1 358 2 1 2 5 0 2 3 2 0 1 360 357 353 354 351 348 349
327 289 318 332 77 98 324 324 324 345 334 333 0 344 349 345 343 351 345 349 347 349 352 356 356 353 356 352 358 359 3 1 359 1 357 359 1 360 360 0 360 345 352 350 352 343 343
268 306 280 293 328 322 338 333 328 348 338 335 333 331 335 340 339 352 336 344 345 353 345 351 353 355 351 355 356 355 357 351 355 358 357 358 357 359 357 357 358 357 351 348 347 350 334
283 190 286 298 320 313 298 333 299 311 328 319 328 321 329 328 333 337 341 339 342 346 351 348 345 346 353 351 348 352 350 348 351 357 355 355 353 354 353 355 355 353 351 345 344 344 344
292 235 291 298 302 321 324 299 320 308 319 313 319 332 325 326 330 337 333 339 336 342 347 344 347 344 337 350 346 348 353 347 345 347 351 353 353 353 352 353 352 347 348 343 343 330 338
255 266 283 286 290 301 302 306 299 306 305 316 318 321 326 330 329 330 318 337 336 340 339 339 344 345 341 341 349 343 343 351 345 348 350 350 348 346 348 349 348 346 342 337 341 326 330
256 269 282 288 299 294 294 300 299 307 308 313 316 324 321 326 329 328 332 314 335 335 342 342 341 345 343 346 342 344 345 341 344 345 349 346 342 344 343 348 345 343 337 334 337 334 331
268 272 275 284 282 293 293 294 297 304 305 312 319 312 315 321 326 328 329 331 306 335 335 332 338 334 334 334 344 336 344 343 337 340 343 342 342 342 339 344 342 340 334 332 316 306 328
268 273 279 281 286 289 290 293 296 300 303 309 319 322 317 300 330 325 327 326 332 332 335 327 336 335 342 335 338 335 337 339 337 342 341 340 340 338 339 340 340 337 332 313 309 304 301
271 276 277 279 283 284 290 290 295 291 302 300 304 304 316 318 320 323 321 327 322 332 328 329 326 330 332 338 337 332 337 329 336 332 334 335 335 336 337 338 333 332 335 309 304 299 299
267 271 274 277 281 283 285 289 290 297 298 300 306 309 312 314 316 321 319 322 327 327 327 321 328 330 331 334 328 325 331 335 331 335 334 336 333 334 333 328 331 331 330 310 306 299 298
270 270 276 280 282 283 284 286 296 299 296 300 308 306 308 312 312 315 314 320 321 323 323 328 323 331 330 323 329 330 326 328 328 328 329 331 330 329 322 333 327 331 330 321 311 294 290
269 270 271 275 281 275 279 284 287 291 294 308 309 308 296 307 318 306 314 314 317 318 321 319 329 318 323 321 325 324 327 323 327 327 330 328 328 327 328 322 330 328 306 306 321 302 284
267 267 273 272 276 273 284 285 289 291 292 295 300 309 305 304 307 310 313 315 317 317 316 321 321 319 322 317 323 322 321 324 322 324 324 323 323 327 324 332 326 326 329 300 308 310 281
266 268 270 276 275 279 283 283 287 290 289 302 296 298 303 300 305 305 306 312 314 312 318 317 311 312 312 319 324 317 319 324 321 321 320 321 323 318 324 330 325 325 309 306 309 309 291
266 268 270 273 273 276 280 282 285 287 291 287 293 297 299 303 301 306 305 307 309 313 306 305 313 311 315 314 315 318 315 318 318 318 319 324 317 320 319 321 326 327 312 308 307 308 295
265 267 270 272 275 279 279 280 284 283 290 286 294 295 299 297 299 307 310 305 300 301 306 305 309 312 310 312 318 313 317 315 319 317 320 321 320 324 321 322 325 327 329 312 301 306 306
267 269 271 271 275 272 277 282 279 285 285 289 292 294 295 298 295 302 300 301 303 302 304 305 307 309 311 312 312 312 312 313 318 318 317 315 318 320 320 322 324 325 326 307 319 307 310
272 273 272 267 272 278 275 263 289 286 286 290 297 289 289 292 295 298 296 302 305 303 301 303 306 305 306 314 308 309 310 311 313 314 316 316 320 317 317 322 322 327 325 323 321 310 313